GW5385 Weather Reports


Display with metric or nautical units.
time (UTC)temp
F
wind
direction
speed
MPH
gust
MPH
rain 1hr
in
rain 24hr
in
rain mn
in
humidity
%
barometer
mb
20260504044544 55 35 20.0 30.0 0.00 0.00 0.00 40 1012.5
20260504043040 57 30 18.0 24.0 0.00 0.00 0.00 39 1011.9
20260504041539 57 14 12.0 17.0 0.00 0.00 0.00 39 1011.5
20260504040038 57 27 11.0 15.0 0.00 0.00 0.00 38 1011.2
20260504034540 57 20 11.0 15.0 0.00 0.00 0.00 38 1010.9
20260504033040 58 42 14.0 17.0 0.00 0.00 0.00 37 1010.6
20260504031556 59 25 13.0 18.0 0.00 0.00 0.00 37 1010.3
20260504030048 59 37 14.0 17.0 0.00 0.00 0.00 36 1009.9
20260504024548 61 37 12.0 18.0 0.00 0.00 0.00 35 1009.9
20260504023045 62 27 12.0 15.0 0.00 0.00 0.00 33 1009.7
20260504021514 64 39 9.0 12.0 0.00 0.00 0.00 29 1009.6
20260504020014 65 6 0.0 4.0 0.00 0.00 0.00 25 1009.6
20260504014515 67 353 6.0 12.0 0.00 0.00 0.00 23 1009.7
20260504013013 69 6 9.0 14.0 0.00 0.00 0.00 22 1009.7
20260504011509 71 353 8.0 14.0 0.00 0.00 0.00 21 1009.7
20260504010008 71 322 8.0 13.0 0.00 0.00 0.00 21 1009.8
20260504004538 72 344 8.0 19.0 0.00 0.00 0.00 22 1009.8
20260504003039 72 326 9.0 15.0 0.00 0.00 0.00 21 1009.9
20260504001535 73 344 6.0 14.0 0.00 0.00 0.00 21 1010.1
20260504000041 73 3 11.0 23.0 0.00 0.00 0.00 20 1010.1
20260503234530 73 340 10.0 16.0 0.00 0.00 0.00 21 1010.2
20260503233029 74 340 11.0 17.0 0.00 0.00 0.00 20 1010.3
20260503231526 73 335 9.0 21.0 0.00 0.00 0.00 20 1010.4
20260503230024 74 323 7.0 12.0 0.00 0.00 0.00 20 1010.5
20260503224526 74 331 5.0 13.0 0.00 0.00 0.00 21 1010.6
20260503223021 74 330 4.0 13.0 0.00 0.00 0.00 21 1010.6
20260503221518 74 304 7.0 14.0 0.00 0.00 0.00 21 1010.9
20260503220021 74 314 7.0 14.0 0.00 0.00 0.00 21 1011.1
20260503214523 74 303 7.0 14.0 0.00 0.00 0.00 21 1011.2
20260503213014 73 347 4.0 12.0 0.00 0.00 0.00 22 1011.3
20260503211511 73 302 4.0 13.0 0.00 0.00 0.00 21 1011.7
20260503210020 73 25 4.0 13.0 0.00 0.00 0.00 22 1011.9
20260503204509 73 294 5.0 13.0 0.00 0.00 0.00 23 1012.0
20260503203004 73 314 6.0 11.0 0.00 0.00 0.00 23 1012.0
20260503201501 73 44 7.0 15.0 0.00 0.00 0.00 22 1012.4
20260503200033 72 319 10.0 16.0 0.00 0.00 0.00 22 1012.7
20260503194527 71 256 3.0 11.0 0.00 0.00 0.00 22 1012.8
20260503193021 71 353 5.0 19.0 0.00 0.00 0.00 24 1013.1
20260503191520 71 340 7.0 17.0 0.00 0.00 0.00 23 1013.3
20260503190018 70 309 8.0 13.0 0.00 0.00 0.00 23 1013.4
20260503184524 69 330 4.0 11.0 0.00 0.00 0.00 24 1013.5
20260503183014 70 327 7.0 14.0 0.00 0.00 0.00 22 1013.6
20260503181511 69 290 5.0 10.0 0.00 0.00 0.00 24 1013.9
20260503180010 69 306 3.0 12.0 0.00 0.00 0.00 25 1014.1
20260503174507 69 343 5.0 11.0 0.00 0.00 0.00 24 1014.4
20260503173004 69 335 6.0 17.0 0.00 0.00 0.00 25 1014.5
20260503171502 69 308 3.0 13.0 0.00 0.00 0.00 24 1014.5
20260503081557 36 335 0.0 1.0 0.00 0.00 0.00 78 1017.4
20260503071543 36 298 0.0 0.0 0.00 0.00 0.00 76 1017.6